Location: Highland Park
(37.7977°N, 122.2275°W)
Time: 15:55:27
(UTC+00:00)

Daily predictions for brighter satellites

Satellite Brightness Start Highest point End
(mag) Time Altitude Azimuth Time Altitude Azimuth Time Altitude Azimuth
COSMOS 2428 4.0 12:20:32 34° NE 12:20:32 34° NE 12:23:53 10° NNE
CZ-2C R/B 4.0 12:34:12 16° ESE 12:34:12 16° ESE 12:35:33 10° ESE
OAO 2 Rocket 4.4 12:43:17 40° ESE 12:43:17 40° ESE 12:46:39 10° E
ADEOS 4.1 12:37:17 10° NNE 12:49:24 - S 12:41:47 55° ENE
Meteor 1-24 Rocket 3.9 12:59:02 56° S 12:59:02 56° S 13:03:30 10° S
Cosmos 1763 Rocket 3.4 13:01:32 78° NE 13:01:32 78° NE 13:06:26 10° NNE
COSMO-SKYMED 1 3.6 12:59:30 10° SE 13:03:37 44° ENE 13:05:40 26° NNE
CZ-4B R/B 4.1 13:02:06 10° NNE 13:05:28 36° E 13:08:55 10° SSE
SJ 16-02 3.0 13:08:09 24° S 13:08:09 24° S 13:09:57 10° S
ATLAS 5 CENTAUR R/B 3.7 13:06:55 19° NE 13:07:10 20° ENE 13:10:25 10° ESE
Cosmos 841 Rocket 4.5 13:02:45 10° S 13:07:36 45° ESE 13:12:29 10° NNE
Lacrosse 5 rocket 3.8 13:10:02 12° NNE 13:10:35 12° NNE 13:12:12 10° NE
FALCON 9 R/B 3.2 13:11:05 27° SSW 13:11:23 28° SSW 13:14:38 10° SE
Cosmos 1898 Rocket 3.9 13:09:46 25° N 13:12:38 59° ENE 13:17:43 10° SSE
H-2A R/B 4.4 13:10:23 10° NNE 13:13:46 33° E 13:17:09 10° SSE
Lacrosse 4 Rocket 4.4 13:11:09 10° SE 13:13:52 17° ESE 13:16:39 10° ENE
GPS 2-04 Rocket1 3.8 13:19:53 36° S 13:19:53 36° S 13:23:15 10° SE
Cosmos 1844 Rocket 4.4 13:23:23 17° SSW 13:23:23 17° SSW 13:24:53 10° SSW
Cosmos 1544 Rocket 4.1 13:16:03 10° S 13:20:16 56° E 13:24:30 10° NNE
Atlas Centaur 2 3.7 13:21:43 24° SW 13:26:15 46° SSE 13:34:16 10° E
SL-4 R/B 3.4 13:28:28 17° S 13:30:44 33° SE 13:34:18 10° ENE
Cosmos 2278 Rocket 2.8 13:26:01 12° NNW 13:31:16 56° ENE 13:36:49 10° SE
NOSS 0 Rocket 3.8 13:26:15 10° SSW 13:32:27 77° WNW 13:38:40 10° NNE
YAOGAN 6 4.2 13:29:50 10° NNE 13:33:17 36° E 13:36:44 10° SSE
Cosmos 468 Rocket 4.3 13:35:43 42° WNW 13:35:43 42° WNW 13:40:36 10° N
Okean 1-7 Rocket 3.6 13:31:08 10° N 13:35:42 82° E 13:40:10 10° S
Cosmos 2237 Rocket 2.1 13:32:14 10° SSW 13:37:53 89° WNW 13:43:37 10° NNE
Cosmos 1513 Rocket 4.4 13:33:08 10° SSW 13:39:24 63° W 13:45:36 10° N
USA 276 3.8 13:42:07 23° SSW 13:42:07 23° SSW 13:43:52 10° SSE
Cosmos 2208 Rocket 4.5 13:37:05 10° S 13:42:28 65° ESE 13:47:51 10° NNE
Cosmos 2219 Rocket 3.3 13:44:04 24° NW 13:44:04 24° NW 13:47:25 10° N
Cosmos 2333 Rocket 3.5 13:44:24 21° NNW 13:44:24 21° NNW 13:47:21 10° N
Cosmos 1814 Rocket 4.1 13:40:22 10° S 13:45:29 76° ESE 13:50:37 10° NNE
Cosmos 1937 Rocket 3.5 13:41:47 11° NNW 13:46:50 87° ENE 13:52:03 10° SSE
Cosmos 1455 Rocket 3.3 13:42:56 10° SSW 13:47:04 42° W 13:51:13 10° N
ERS-2 1.9 13:45:16 10° S 13:48:54 74° WSW 13:50:58 24° NNW
Cosmos 1689 Rocket 2.5 13:46:22 10° SSE 13:49:13 60° ENE 13:51:05 20° N
SKYMED 2 3.7 13:47:24 10° S 13:51:36 50° W 13:54:14 21° NNW
Cosmos 1464 Rocket 4.0 13:46:01 10° SSW 13:51:56 52° W 13:57:55 10° N
GEOS 3 Rocket 3.8 13:47:02 10° SE 13:52:22 80° NE 13:57:10 13° NNW
Envisat 3.2 13:47:41 10° NNE 13:52:47 73° ESE 13:57:50 10° S
ATLAS CENTAUR R/B 2.6 13:49:28 10° S 13:52:57 38° ESE 13:56:22 10° NE
Meteor PRIRODA 3.7 13:50:07 10° N 13:53:37 50° WNW 13:57:07 10° SSW
Cosmos 1953 2.3 13:50:31 10° SSW 13:54:26 58° W 13:58:21 10° N
SJ-7 4.5 13:50:49 10° NNE 13:54:59 82° ESE 13:59:03 10° S
Cosmos 1908 3.0 13:53:44 10° S 13:57:31 85° W 14:01:21 10° N
H-2A R/B 4.2 13:53:27 10° NNE 13:57:39 38° E 14:01:50 10° SSE
CZ-4B R/B 3.0 13:55:02 10° SSW 13:56:35 20° SW 13:56:35 20° SW
COSMOS 2428 3.8 14:02:38 22° WNW 14:02:57 22° NW 14:07:18 10° N
deb Chang Zheng 4 4.2 14:01:27 10° N 14:05:13 32° WNW 14:08:57 10° SW
Cosmos 44 Rocket 3.4 14:00:44 13° NNW 14:05:28 89° ENE 14:10:39 10° SSE
USA 307 3.5 14:05:02 10° SSW 14:09:10 57° SE 14:13:19 10° NE
Cosmos 1980 4.0 14:05:33 10° SW 14:10:55 44° WNW 14:16:20 10° N
CZ-2C R/B 1.9 14:08:31 15° WSW 14:11:41 48° S 14:15:27 10° E
Okean O Rocket 3.4 14:08:01 10° NNE 14:12:03 36° E 14:16:02 10° SSE
MOS 1 Rocket 3.7 14:07:28 10° S 14:12:22 47° W 14:17:03 10° NNW
PSLV R/B 4.1 14:10:11 10° S 14:14:09 51° W 14:18:12 10° NNW
Cosmos 540 Rocket 3.9 14:10:01 10° SW 14:14:44 37° WNW 14:19:30 10° N
Cosmos 1461 4.5 14:14:12 19° WNW 14:15:17 21° NW 14:18:53 10° N
CZ-3 Stage 3 2.4 14:14:26 11° WSW 14:16:38 18° S 14:18:07 10° SE
USA 308 3.2 14:13:41 10° SW 14:17:53 70° SE 14:22:05 10° NE
USA 305 3.1 14:14:04 10° SW 14:18:18 75° SE 14:22:32 10° NE
Cosmos 1602 Rocket 3.5 14:18:44 10° N 14:23:12 79° W 14:27:40 10° S
Cosmos 1092 Rocket 4.0 14:17:46 10° N 14:23:56 87° W 14:30:08 10° S
MOS 1-B 4.4 14:18:27 10° NNE 14:24:16 85° ESE 14:30:02 10° SSW
OAO 2 Rocket 3.6 14:22:15 14° W 14:26:24 59° S 14:31:15 10° ESE
SL-8 R/B 3.8 14:22:30 14° NW 14:26:38 79° NNE 14:31:27 10° ESE
SMAP 3.2 14:22:44 10° NNE 14:27:25 79° ESE 14:32:03 10° S
Spot 2 3.8 14:23:53 10° N 14:27:55 75° WNW 14:31:58 10° SSW
Cosmos 972 Rocket 4.5 14:22:50 10° SSW 14:29:33 83° WNW 14:35:34 10° NNE
Cosmos 2034 Rocket 4.5 14:23:51 10° SW 14:29:41 38° WNW 14:35:34 10° N
USA 306 2.8 14:25:53 10° SW 14:30:08 87° NW 14:34:24 10° NE
Cosmos 1340 2.7 14:27:05 10° NNW 14:30:46 55° W 14:34:25 10° S
CZ-4B DEB 4.2 14:25:25 10° N 14:30:58 71° WNW 14:36:29 10° SSW
Cosmos 1703 3.7 14:33:24 10° NNW 14:37:05 40° W 14:40:44 10° SSW
COSMO-SKYMED 1 4.3 14:37:37 10° SW 14:39:58 14° W 14:42:20 10° WNW
CZ-4B R/B 4.4 14:38:41 10° NW 14:40:15 12° WNW 14:41:49 10° W
Nadezhda 4 Rocket 4.5 14:34:48 10° NNW 14:40:19 36° W 14:45:49 10° SSW
BREEZE-M DEB (TANK) 2.4 14:35:12 10° SW 14:40:24 84° NW 14:42:41 10° NE
Cosmos 1825 Rocket 4.2 14:36:12 10° N 14:40:38 60° E 14:45:02 10° SSE
Cosmos 2150 Rocket 4.4 14:37:39 10° NNW 14:43:00 72° ENE 14:48:23 10° SSE
Cosmos 1346 Rocket 3.0 14:40:23 10° N 14:44:21 76° E 14:48:19 10° SSE
Cosmos 1634 Rocket 4.0 14:39:21 10° SSW 14:45:27 63° W 14:51:35 10° N
DMSP B5D2-2 4.4 14:40:39 10° SSE 14:45:50 71° ENE 14:51:06 10° N
H-2A R/B 4.3 14:45:38 10° NW 14:47:37 14° WNW 14:49:37 10° W
Lacrosse 5 rocket 1.2 14:46:32 10° NW 14:50:21 78° NE 14:53:59 10° SE
NOSS 3-2 (A) 3.4 14:45:57 10° SW 14:51:24 60° NW 14:57:37 10° NNE
Lacrosse 4 Rocket 1.9 14:48:17 10° SW 14:52:12 37° WNW 14:56:14 10° N
